Regional Weather Roundup
Issued by NWS

Home | Current Version | Previous Version | Text Only | Print | Product List | Glossary Off
Versions: 1 2 3 4 5 6 7 8 9 10 11 12 13 14 15 16 17 18 19 20 21 22 23 24 25 26 27 28 29 30 31 32 33 34 35 36 37 38 39 40 41 42 43 44 45 46 47 48 49 50

000
ASUS43 KBIS 230820
RWRND

NORTH DAKOTA REGIONAL WEATHER ROUNDUP
NATIONAL WEATHER SERVICE BISMARCK ND
300 AM CDT WED JUL 23 2014

NOTE: "FAIR" INDICATES FEW OR NO CLOUDS BELOW 12,000 FEET WITH NO
SIGNIFICANT WEATHER AND/OR OBSTRUCTIONS TO VISIBILITY.


NDZ001>003-009>011-017-230900-
NORTHWEST NORTH DAKOTA

CITY           SKY/WX    TMP DP  RH WIND       PRES   REMARKS
WILLISTON      PTCLDY    68  62  81 SE3       30.23F
MINOT          LGT RAIN  64  62  93 E3        30.26R
MINOT AFB      CLOUDY    65  64  98 S6        30.26S
$$

NDZ018>021-031>035-040>046-230900-
SOUTHWEST NORTH DAKOTA

CITY           SKY/WX    TMP DP  RH WIND       PRES   REMARKS
BISMARCK       MOCLDY    65  62  90 NE5       30.25S
DICKINSON      MOCLDY    62  60  93 SE7       30.24S
GARRISON         N/A     67  65  93 NW5       30.26R
HETTINGER ARPT PTCLDY    62  59  90 E8        30.24F
$$

NDZ004>008-012>016-024-026-027-054-230900-
NORTHEAST NORTH DAKOTA

CITY           SKY/WX    TMP DP  RH WIND       PRES   REMARKS
GRAND FORKS    CLEAR     58  56  93 NW3       30.26S
GRND FRKS AFB  PTCLDY    62  62  99 NW6       30.28R
DEVILS LAKE    PTCLDY    63  57  82 NE5       30.27S
$$

NDZ022-023-025-028>030-036>039-047>053-230900-
SOUTHEAST NORTH DAKOTA

CITY           SKY/WX    TMP DP  RH WIND       PRES   REMARKS
FARGO          PTCLDY    60  57  89 N3        30.25F
JAMESTOWN      CLEAR     61  57  87 S5        30.27S
$$



USA.gov is the U.S. government's official web portal to all federal, state and local government web resources and services.